Location: ????? ????????
(42.0234°N, 44.2434°E)
Time: 12:56:03
(UTC+00:00)

Daily predictions for brighter satellites

Satellite Brightness Start Highest point End
(mag) Time Altitude Azimuth Time Altitude Azimuth Time Altitude Azimuth
CZ-4B DEB 4.2 13:52:45 10° SSE 13:58:12 78° ENE 14:03:41 10° NNW
Cosmos 2278 Rocket 4.2 13:54:01 10° NW 13:59:07 35° WSW 14:04:13 10° SSW
CZ-4C R/B 3.1 14:01:15 10° NNE 14:04:54 89° E 14:08:29 10° SSW
Cosmos 2285 Rocket 4.1 13:58:40 10° NNW 14:04:57 55° ENE 14:11:08 10° SE
USA 267 4.4 14:00:36 10° ENE 14:05:40 25° N 14:10:46 10° NW
CORIOLIS 4.4 14:04:08 10° SE 14:09:17 48° ENE 14:14:30 10° N
PAYLOAD B 4.3 14:05:25 10° SSE 14:11:00 83° ENE 14:16:35 10° NNW
USA 81 4.4 14:06:17 10° N 14:11:21 45° E 14:16:24 10° SSE
COSMO-SKYMED 1 4.0 14:10:06 10° NE 14:13:08 18° E 14:16:09 10° SE
Cosmos 2181 Rocket 4.1 14:10:35 10° S 14:16:55 65° E 14:23:11 10° NNE
BREEZE-M R/B 2.7 14:13:10 10° WNW 14:17:56 83° NNE 14:20:02 10° ESE
Meteor 1-20 Rocket 4.3 14:16:09 10° N 14:22:00 71° E 14:27:46 10° SSE
X-37B 0.6 14:19:09 10° WSW 14:22:19 89° SSW 14:24:55 14° ENE
Cosmos 2237 Rocket 4.0 14:19:05 10° WSW 14:23:44 26° NW 14:28:27 10° N
Meteor 1-4 Rocket 2.8 14:21:06 10° SSE 14:24:31 44° E 14:27:55 10° NNE
Cosmos 1328 Rocket 3.5 14:20:26 10° S 14:24:41 62° E 14:28:59 10° NNE
NOAA 11 4.4 14:19:33 10° SE 14:24:44 49° ENE 14:29:59 10° N
Cosmos 1812 4.4 14:23:16 10° ESE 14:25:26 15° E 14:26:19 14° ENE
CZ-4B R/B 3.1 14:20:30 10° SSE 14:25:48 79° ENE 14:31:07 10° NNW
Cosmos 1939 Rocket 3.8 14:23:10 10° SE 14:26:22 25° ENE 14:29:35 10° NNE
Meteor 1-26 Rocket 4.4 14:21:29 10° S 14:27:25 63° E 14:33:21 10° NNE
Cosmos 1603 4.3 14:23:03 10° S 14:28:06 35° ESE 14:33:05 10° NE
CZ-4 R/B 3.2 14:29:24 13° NE 14:29:24 13° NE 14:30:36 10° NNE
Cosmos 1933 Rocket 4.3 14:25:40 10° NNE 14:29:39 31° ENE 14:33:36 10° SE
Cosmos 1666 Rocket 3.7 14:26:21 10° N 14:30:47 79° W 14:35:13 10° S
CENTAUR R/B 3.8 14:27:14 10° SE 14:30:51 17° ESE 14:33:16 14° ENE
ADEOS Rocket 4.3 14:23:48 10° N 14:31:22 57° WNW 14:38:48 10° SW
Cosmos 44 4.0 14:26:10 10° NW 14:31:28 68° WSW 14:36:50 10° SSE
Cosmos 1943 3.9 14:26:39 10° SSE 14:31:39 33° ESE 14:36:16 12° NE
H-2A R/B 3.4 14:29:55 10° S 14:34:04 52° W 14:38:06 10° NNW
Cosmos 2369 Rocket 2.5 14:30:06 10° NNW 14:35:33 45° ENE 14:40:56 10° SE
Cosmos 1602 3.8 14:32:24 10° N 14:36:14 52° E 14:40:01 10° SSE
NOAA 12 4.2 14:30:58 10° SSE 14:36:17 88° WSW 14:41:38 10° NNW
Cosmos 1538 Rocket 4.1 14:31:27 10° S 14:36:44 63° ESE 14:42:04 10° NNE
Cosmos 1943 Rocket 2.1 14:31:53 10° NNW 14:37:27 74° ENE 14:43:02 10° SSE
SL-23 DEB 4.0 14:37:24 10° WSW 14:40:52 76° NNW 14:44:49 17° NE
CZ-2D R/B 4.1 14:41:07 10° SE 14:44:22 27° ENE 14:47:37 10° NNE
H-2A R/B 3.0 14:41:16 10° N 14:45:21 48° WNW 14:49:30 10° SW
Okean O Rocket 1.8 14:42:23 10° S 14:46:44 73° WSW 14:51:07 10° NNW
Okean-O 3.6 14:44:44 10° ESE 14:48:17 24° ENE 14:51:51 10° NNE
Cosmos 1782 2.7 14:46:04 10° S 14:50:00 86° E 14:54:01 10° N
Cosmos 2218 Rocket 4.1 14:47:42 10° N 14:53:52 81° W 15:00:02 10° S
Cosmos 2366 rocket 4.0 14:48:46 10° N 14:54:57 83° W 15:01:05 10° S
Cosmos 1633 Rocket 4.0 14:50:47 10° NNW 14:55:01 51° W 14:59:13 10° S
ISS -1.8 14:57:29 10° NW 14:59:48 17° N 15:00:00 17° NNE
FALCON 9 R/B 2.5 14:59:16 10° SW 15:00:52 17° S 15:01:40 15° SSE
SKYMED 2 3.5 14:57:17 11° NNE 15:01:28 60° E 15:05:45 10° S
NOSS 3-2 (A) 3.5 14:57:50 10° SSW 15:03:10 50° ESE 15:06:35 24° NE
ERS-2 2.1 15:01:35 12° NNE 15:04:59 85° WNW 15:08:39 10° SSW
Feng Yun 1-1 Rocket 4.2 15:06:14 10° SSE 15:12:00 87° ENE 15:17:39 10° NNW
Lacrosse 5 rocket 3.4 15:11:10 10° WNW 15:13:15 14° NNW 15:14:37 12° N
USA 215 3.3 15:11:59 26° ENE 15:15:50 64° SE 15:22:18 10° SW
SL-16 R/B 4.0 15:12:03 10° WSW 15:16:47 27° NW 15:21:34 10° N
USA 238 DEB 3.6 15:15:50 10° SSW 15:22:16 63° ESE 15:25:38 30° NE
USA 238 3.6 15:15:56 10° SSW 15:22:22 63° ESE 15:25:42 31° NE
CZ-4B R/B 3.1 15:23:17 11° NNW 15:25:50 30° WNW 15:28:39 10° SW
YAOGAN 1 3.7 15:32:09 28° N 15:32:09 28° N 15:34:22 10° N
Cosmos 1656 Rocket 3.5 15:25:55 10° NNW 15:31:33 69° ENE 15:35:42 18° SE
Cosmos 1500 3.3 15:29:03 10° NNW 15:32:52 74° W 15:36:41 10° S
NOAA 15 4.5 15:30:07 10° SSE 15:35:21 67° ENE 15:40:35 10° N
MOS 1 Rocket 3.5 15:34:08 28° NNE 15:37:06 69° E 15:42:24 10° S
CZ-2C R/B 2.7 15:33:17 10° SSE 15:38:19 80° ENE 15:43:09 10° N
USA 281 3.1 15:32:40 10° SE 15:39:08 65° ENE 15:45:39 10° NNW
Cosmos 1934 Rocket 4.0 15:32:54 10° N 15:39:08 55° ENE 15:45:16 10° SSE
Cosmos 158 Rocket 3.8 15:34:20 10° SSW 15:39:18 85° WNW 15:41:04 41° NNE
Cosmos 2263 4.2 15:34:09 10° NNW 15:39:46 79° WSW 15:45:21 10° SSE
Cosmos 923 Rocket 4.0 15:36:55 10° SSW 15:42:06 79° WNW 15:44:26 34° NNE
Nadezhda 3 Rocket 4.1 15:37:30 10° S 15:43:52 78° W 15:50:16 10° N
CSL-04 Debris 4.3 15:45:46 53° NE 15:45:46 53° NE 15:50:29 10° N
USA 267 3.6 15:46:49 42° NE 15:47:38 44° NNE 15:53:45 10° NW
Cosmos 1238 Rocket 3.1 15:43:46 10° N 15:47:54 80° W 15:52:57 10° S
COSMO-SKYMED 1 3.8 15:45:53 13° N 15:49:27 40° WNW 15:53:30 10° SW
H-2A R/B 2.3 15:54:40 54° N 15:54:40 54° N 15:58:41 10° N
Cosmos 2228 Rocket 3.9 15:50:08 10° SSW 15:54:33 50° WNW 15:56:56 25° NNW
Cosmos 1821 Rocket 4.3 15:48:38 10° NNW 15:54:51 67° W 16:01:07 10° S
NOSS 3-3 (A) 4.4 15:49:08 10° NNW 15:56:45 76° NE 16:00:24 38° SE
NOSS 3-3 (C) 4.4 15:49:12 10° NNW 15:56:51 76° NE 16:00:25 38° SE
X-37B 3.2 15:56:02 10° WNW 15:57:12 20° WNW 15:57:12 20° WNW
Meteor 1-11 Rocket 3.7 15:54:25 10° N 16:00:15 88° ENE 16:06:10 10° S
Cosmos 1812 4.2 15:57:20 10° SW 16:00:52 35° WNW 16:01:27 33° WNW
CZ-4 R/B 3.3 16:05:25 23° NNW 16:05:25 23° NNW 16:07:04 10° NNW
Cosmos 44 Rocket 3.5 16:01:42 10° NW 16:06:21 71° NW 16:06:21 71° NW
Cosmos 1680 Rocket 3.9 16:03:51 10° SSW 16:09:02 61° WNW 16:09:56 53° NNW
Lacrosse 4 Rocket 3.3 16:08:56 10° SSW 16:10:38 24° SW 16:10:38 24° SW
Cosmos 1943 4.5 16:10:24 10° SW 16:15:36 37° WNW 16:18:07 25° N
Cosmos 2369 Rocket 4.2 16:14:38 10° NW 16:19:17 27° WSW 16:23:54 10° SSW
CENTAUR R/B 2.4 16:14:33 10° SW 16:20:22 78° NW 16:20:30 78° NW
Okean-O 4.3 16:20:38 10° SSW 16:24:36 32° W 16:28:36 10° NNW
NOSS 3-2 (C) 3.6 16:22:43 10° SW 16:27:40 64° W 16:27:40 64° W
USA 215 4.1 16:59:21 44° NW 16:59:21 44° NW 17:04:49 10° W
